Voltar ao catálogo

COSMOS 374

AtivoMilitarUNKNOWN
NORAD 4594·PAYLOAD·🇷🇺 Russia

Lançado Oct 23, 1970 de Baikonur Cosmodrome

Loading…

Próximas Passagens (próximas 24 horas)

TLE

AtualizadoSource: Space-Track

Época: Sep 14, 2026, 10:12 UTC

1 04594U 70089A   26257.42526064  .00000191  00000-0  98718-4 0  9995
2 04594  62.9280 264.3999 0982025  67.4189 302.7652 12.96923805680480

Acompanhe COSMOS 374 em tempo real com AllMySat

Download on the App Store